Stations météo

réclame
Mon MeteoGroup
Kleine Brogel, Belgique (6479): Température de l'air & dewpoint: 12.10.2019 03:00:00 - 18.10.2019 03:00:00 (CEST)Kleine Brogel, Belgique (6479): Vitesse du vent & gusts: 12.10.2019 03:00:00 - 18.10.2019 03:00:00 (CEST)Kleine Brogel, Belgique (6479): Direction du vent: 12.10.2019 03:00:00 - 18.10.2019 03:00:00 (CEST)Kleine Brogel, Belgique (6479): reduced air pressure: 12.10.2019 03:00:00 - 18.10.2019 03:00:00 (CEST)Kleine Brogel, Belgique (6479): visibility: 12.10.2019 03:00:00 - 18.10.2019 03:00:00 (CEST)
Date & Time tt [°C] td [°C] ff [km/h] ff [knt] fx [km/h] fx [knt] dd ppp [hPa] vv [km]
18.10.2019 03:00:00 12,5 11,3 11 6 18 10 S 1008,2 20
18.10.2019 02:00:00 12,2 11,0 11 6 - - S 1008,6 20
18.10.2019 01:00:00 12,1 11,4 7 4 18 10 S 1009,0 20
18.10.2019 00:00:00 11,8 11,5 4 2 14 8 N 1009,3 20
17.10.2019 23:00:00 12,2 11,9 7 4 - - S 1009,7 20
17.10.2019 22:00:00 12,6 12,2 4 2 11 6 N 1009,8 20
17.10.2019 21:00:00 12,2 12,1 7 4 14 8 SSW 1009,7 20
17.10.2019 20:00:00 12,6 12,2 7 4 - - N 1009,7 20
17.10.2019 19:00:00 13,0 12,5 7 4 18 10 S 1009,5 20
17.10.2019 18:00:00 13,1 12,7 7 4 14 8 SSW 1009,7 7
17.10.2019 17:00:00 13,0 12,6 4 2 - - N 1009,7 2,0
17.10.2019 16:00:00 13,2 12,6 7 4 18 10 SW 1010,3 3,0
17.10.2019 15:00:00 14,3 11,8 7 4 18 10 S 1010,7 5
17.10.2019 14:00:00 15,5 10,7 11 6 - - SW 1010,7 15
17.10.2019 13:00:00 15,3 10,6 14 8 29 16 SSW 1011,2 15
17.10.2019 12:00:00 15,1 11,8 18 10 25 14 SSW 1011,3 15
17.10.2019 11:00:00 13,6 12,3 11 6 - - SW 1011,2 10
17.10.2019 10:00:00 12,8 12,2 15 8 22 12 WSW 1011,0 4,0
17.10.2019 09:00:00 12,8 12,3 11 6 22 12 WSW 1010,2 4,0
17.10.2019 08:00:00 13,3 12,9 14 8 - - SW 1009,2 5
17.10.2019 07:00:00 13,6 13,0 14 8 22 12 SSW 1008,6 20
17.10.2019 06:00:00 13,5 12,9 14 8 25 14 SSW 1008,3 13
17.10.2019 05:00:00 13,3 12,8 14 8 - - SSW 1008,1 11
17.10.2019 04:00:00 13,5 12,7 14 8 29 16 SSW 1008,1 20
17.10.2019 03:00:00 13,3 12,6 14 8 25 14 S 1008,0 20
17.10.2019 02:00:00 13,3 12,5 14 8 - - SSW 1007,7 13
17.10.2019 01:00:00 13,1 12,5 11 6 25 14 SSW 1007,7 20
17.10.2019 00:00:00 13,1 12,6 13 7 25 14 SSW 1008,0 5
16.10.2019 23:00:00 13,3 12,6 14 8 - - SSW 1008,1 16
16.10.2019 22:00:00 13,5 12,7 14 8 25 14 SSW 1008,0 13
16.10.2019 21:00:00 13,6 13,0 14 8 25 14 SSW 1008,1 20
16.10.2019 20:00:00 13,5 13,0 14 8 - - SSW 1008,2 5
16.10.2019 19:00:00 13,6 12,9 14 8 29 16 SSW 1008,0 19
16.10.2019 18:00:00 13,6 13,0 15 8 29 16 SSW 1007,8 7
16.10.2019 17:00:00 13,6 13,2 16 9 - - SSW 1008,0 3,4
16.10.2019 16:00:00 14,1 12,5 18 10 32 18 SSW 1008,0 12
16.10.2019 15:00:00 14,1 12,5 16 9 29 16 SSW 1007,8 10
16.10.2019 14:00:00 13,1 12,4 11 6 - - S 1008,2 3,0
16.10.2019 13:00:00 12,9 11,9 11 6 36 19 S 1008,8 4,0
16.10.2019 12:00:00 13,4 11,1 14 8 32 18 S 1009,2 12
16.10.2019 11:00:00 13,0 10,5 14 8 - - S 1009,5 15
16.10.2019 10:00:00 12,3 9,9 14 8 25 14 SSW 1010,0 20
16.10.2019 09:00:00 10,6 9,3 7 4 14 8 S 1009,8 20
16.10.2019 08:00:00 10,0 9,0 7 4 - - S 1009,7 20
16.10.2019 07:00:00 11,3 10,0 11 6 22 12 SSW 1010,0 10
16.10.2019 06:00:00 11,3 10,4 14 8 29 16 SSW 1009,7 20
16.10.2019 05:00:00 11,3 10,0 14 8 - - SSW 1009,7 20
16.10.2019 04:00:00 11,2 9,7 11 6 22 12 SSW 1009,7 20
16.10.2019 03:00:00 11,6 10,3 14 8 25 14 SSW 1009,8 20
16.10.2019 02:00:00 12,3 11,1 14 8 - - SSW 1009,7 20
16.10.2019 01:00:00 12,3 11,4 14 8 18 10 SSW 1009,2 20
16.10.2019 00:00:00 12,3 11,6 9 5 18 10 SSW 1009,3 10
15.10.2019 23:00:00 12,6 12,0 11 6 - - SW 1009,2 10
15.10.2019 22:00:00 13,1 12,4 11 6 18 10 SW 1009,0 10
15.10.2019 21:00:00 13,3 12,7 4 2 11 6 N 1008,3 10
15.10.2019 20:00:00 13,3 13,0 7 4 - - N 1008,0 10
15.10.2019 19:00:00 13,5 12,8 4 2 11 6 N 1007,2 10
15.10.2019 18:00:00 13,8 13,3 4 2 14 8 N 1006,8 10
15.10.2019 17:00:00 14,1 13,3 7 4 - - SSW 1006,7 8
15.10.2019 16:00:00 14,8 13,4 7 4 14 8 SSW 1006,8 15
15.10.2019 15:00:00 14,9 13,7 7 4 18 10 SSW 1007,0 15
15.10.2019 14:00:00 15,0 13,7 11 6 - - SSW 1007,1 15
15.10.2019 13:00:00 14,9 14,2 11 6 18 10 SSW 1007,5 12
15.10.2019 12:00:00 15,1 14,1 7 4 14 8 SSW 1007,0 10
15.10.2019 11:00:00 15,1 14,4 4 2 - - N 1006,7 15
15.10.2019 10:00:00 14,2 13,9 8 4 14 8 S 1007,1 5
15.10.2019 09:00:00 14,0 13,3 7 4 18 10 SSW 1006,3 9
15.10.2019 08:00:00 15,0 12,4 7 4 - - SSW 1006,2 15
15.10.2019 07:00:00 14,6 12,0 8 4 14 8 S 1005,8 10
15.10.2019 06:00:00 14,1 12,6 4 2 7 4 N 1005,7 20
15.10.2019 05:00:00 14,1 12,5 4 2 - - N 1005,6 20
15.10.2019 04:00:00 16,2 13,1 4 2 11 6 N 1005,8 20
15.10.2019 03:00:00 15,5 13,3 4 2 11 6 N 1006,0 20
15.10.2019 02:00:00 15,6 13,3 4 2 - - N 1006,1 20
15.10.2019 01:00:00 14,4 13,6 4 2 7 4 - 1006,0 5
15.10.2019 00:00:00 15,7 13,9 4 2 7 4 N 1005,7 20
14.10.2019 23:00:00 17,1 14,4 2 1 - - - 1006,0 10
14.10.2019 22:00:00 18,2 14,1 2 1 11 6 - 1006,2 10
14.10.2019 21:00:00 18,6 14,4 4 2 11 6 N 1006,2 20
14.10.2019 20:00:00 18,9 14,7 4 2 - - N 1006,7 20
14.10.2019 19:00:00 19,4 14,6 4 2 11 6 N 1006,7 20
14.10.2019 18:00:00 20,4 16,1 4 2 18 10 N 1006,7 20
14.10.2019 17:00:00 21,6 15,8 7 4 - - E 1007,3 20
14.10.2019 16:00:00 21,1 15,3 7 4 18 10 E 1008,2 20
14.10.2019 15:00:00 21,1 15,4 7 4 18 10 E 1009,0 20
14.10.2019 14:00:00 20,4 14,5 7 4 - - E 1009,7 20
14.10.2019 13:00:00 19,4 14,4 7 4 22 12 E 1010,7 20
14.10.2019 12:00:00 16,9 13,7 11 6 22 12 E 1011,6 20
14.10.2019 11:00:00 15,8 12,9 11 6 - - ENE 1012,3 20
14.10.2019 10:00:00 13,8 12,8 7 4 14 8 ENE 1012,8 12
14.10.2019 09:00:00 11,8 11,7 4 2 7 4 N 1013,1 12
14.10.2019 08:00:00 10,7 10,7 2 1 - - - 1013,5 6
14.10.2019 07:00:00 11,0 10,9 4 2 7 4 N 1013,2 6
14.10.2019 06:00:00 10,6 10,5 4 2 7 4 N 1013,8 10
14.10.2019 05:00:00 12,0 11,6 2 1 - - - 1013,6 3,9
14.10.2019 04:00:00 14,1 12,1 4 2 11 6 N 1013,8 20
14.10.2019 03:00:00 14,7 12,1 7 4 18 10 SW 1014,0 20
14.10.2019 02:00:00 15,3 11,9 7 4 - - SW 1013,5 20
14.10.2019 01:00:00 15,7 12,2 14 8 22 12 WSW 1013,1 20
14.10.2019 00:00:00 15,7 12,9 14 8 25 14 WSW 1012,6 20
13.10.2019 23:00:00 16,1 13,2 18 10 - - WSW 1011,7 20
13.10.2019 22:00:00 18,0 14,6 18 10 40 21 W 1010,6 20
13.10.2019 21:00:00 19,2 16,3 18 10 36 19 SW 1009,2 20
13.10.2019 20:00:00 21,0 15,4 7 4 - - SW 1008,2 20
13.10.2019 19:00:00 21,6 15,2 11 6 29 16 SSW 1007,7 20
13.10.2019 18:00:00 22,8 15,1 18 10 36 19 SSW 1007,5 20
13.10.2019 17:00:00 23,0 14,5 18 10 - - SSW 1007,2 20
13.10.2019 16:00:00 23,7 14,7 25 14 40 21 SW 1006,7 20
13.10.2019 15:00:00 24,3 14,8 22 12 47 25 SSW 1006,2 20
13.10.2019 14:00:00 23,3 15,3 14 8 - - SSW 1006,7 20
13.10.2019 13:00:00 21,8 15,0 18 10 32 18 S 1008,0 20
13.10.2019 12:00:00 20,0 14,9 18 10 32 18 S 1008,2 20
13.10.2019 11:00:00 19,0 15,3 14 8 - - SSW 1008,3 20
13.10.2019 10:00:00 17,8 15,3 11 6 22 12 S 1008,5 20
13.10.2019 09:00:00 17,1 15,3 11 6 22 12 S 1008,8 20
13.10.2019 08:00:00 16,0 14,9 4 2 - - N 1008,3 20
13.10.2019 07:00:00 15,9 14,6 7 4 18 10 S 1008,5 19
13.10.2019 06:00:00 15,5 14,3 7 4 14 8 S 1008,8 20
13.10.2019 05:00:00 14,3 13,4 4 2 - - N 1009,0 20
13.10.2019 04:00:00 15,3 13,8 7 4 14 8 S 1009,2 20
13.10.2019 03:00:00 15,8 14,1 7 4 14 8 SSW 1010,0 20
13.10.2019 02:00:00 15,3 13,7 7 4 - - SSW 1010,2 20
13.10.2019 01:00:00 15,1 13,4 7 4 14 8 S 1010,2 19
13.10.2019 00:00:00 14,8 13,1 7 4 14 8 SSW 1010,8 20
12.10.2019 23:00:00 15,0 12,9 7 4 - - SSW 1010,6 20
12.10.2019 22:00:00 16,0 13,2 14 8 22 12 SSW 1010,6 20
12.10.2019 21:00:00 15,2 13,1 7 4 14 8 SSW 1010,3 20
12.10.2019 20:00:00 15,1 12,7 4 2 - - N 1010,1 20
12.10.2019 19:00:00 16,5 12,9 7 4 14 8 SSW 1009,8 20
12.10.2019 18:00:00 17,6 13,2 4 2 14 8 N 1009,7 20
12.10.2019 17:00:00 18,0 12,5 11 6 - - SSW 1010,2 20
12.10.2019 16:00:00 18,1 11,8 14 8 40 21 SSW 1010,7 20
12.10.2019 15:00:00 18,5 12,1 22 12 43 23 SSW 1010,8 20
12.10.2019 14:00:00 19,2 11,8 22 12 - - SSW 1010,7 20
12.10.2019 13:00:00 18,8 12,6 18 10 36 19 SSW 1010,7 20
12.10.2019 12:00:00 17,2 12,3 22 12 40 21 SW 1010,6 20
12.10.2019 11:00:00 16,6 12,0 22 12 - - SW 1010,5 20
12.10.2019 10:00:00 15,3 11,5 22 12 36 19 SSW 1010,2 20
12.10.2019 09:00:00 14,5 11,3 18 10 29 16 SSW 1009,6 20
12.10.2019 08:00:00 14,1 11,0 14 8 - - SSW 1009,1 20
12.10.2019 07:00:00 14,3 11,0 14 8 29 16 SSW 1009,0 20
12.10.2019 06:00:00 14,1 10,8 18 10 29 16 SSW 1008,7 20
12.10.2019 05:00:00 14,3 10,9 18 10 - - SSW 1008,7 20
12.10.2019 04:00:00 14,5 11,1 14 8 32 18 SSW 1008,7 20
12.10.2019 03:00:00 16,2 11,4 22 12 36 19 SSW 1009,1 20

tt = Température de l'air
td = dewpoint
ff = Vitesse du vent
fx = gusts
dd = Direction du vent
ppp = reduced air pressure
vv = visibility

stations d'obs. à proximité